sat.trackr.live / text

‹ back to catalog

STARLINK-34693

NORAD 64793 · 2025-150D

PAYLOAD ACTIVE UNKNOWN

§ Identity

Operator
Country
US
Launch date
2025-07-16
Launch site
AFWTR
Launch vehicle
Mass (kg)
RCS (m²)

Purposes: comms

External: N2YO · Heavens-Above · Gunter

§ Orbital elements

Epoch: 2026-09-20T13:43:50.812032Z

Period
96.11 min
Inclination
70.0031°
Eccentricity
0.0003296
Mean motion
14.98337277 rev/d
Perigee alt
569.7 km
Apogee alt
574.3 km
Semi-major
6,950.2 km
B*
1.9746e-4
RAAN
3.2677°
Arg perigee
269.6790°
Mean anomaly
90.3991°
Rev number
6,570

§ Raw data

STARLINK-346931 64793U 25150D   26263.57211588  .00002264  00000+0  19746-3 0  99912 64793  70.0031   3.2677 0003296 269.6790  90.3991 14.98337277 65706

JSON: /api/v1/satellites/64793 · /tle

For live sub-satellite position, see the globe view (requires WebGL).

§ Visibility from observer

Set your observer location to see the next 7 days of passes ≥ 10°. The values pass through the URL so the page stays shareable.

No JS? Fill the form by hand. The geolocation button needs JavaScript.